EW2807 Weather Reports


time (UTC)temp
C
wind
direction
speed
KPH
gust
KPH
rain 1hr
cm
rain 24hr
cm
rain mn
cm
humidity
%
barometer
mb
20260510164333 13 176 1.6 11.3 0.00 0.08 0.00 37 1015.3
20260510163825 13 90 3.2 11.3 0.00 0.08 0.00 36 1015.3
20260510163317 13 62 1.6 11.3 0.00 0.08 0.00 36 1015.2
20260510162827 13 124 1.6 17.7 0.00 0.08 0.00 40 1015.2
20260510161728 13 129 1.6 8.0 0.00 0.08 0.00 38 1015.2
20260510161222 13 122 1.6 8.0 0.00 0.08 0.00 39 1015.2
20260510160707 13 236 1.6 14.5 0.00 0.08 0.00 46 1015.2
20260510155555 12 182 1.6 17.7 0.00 0.08 0.00 39 1015.1
20260510155057 12 128 3.2 12.9 0.00 0.08 0.00 42 1015.0
20260510154556 12 162 1.6 12.9 0.00 0.08 0.00 41 1015.1
20260510154039 12 143 1.6 12.9 0.00 0.08 0.00 41 1015.0
20260510153541 12 151 3.2 11.3 0.00 0.08 0.00 40 1015.0
20260510153023 12 255 3.2 12.9 0.00 0.08 0.00 43 1014.9
20260510151903 12 103 1.6 12.9 0.00 0.08 0.00 40 1014.8
20260510151352 12 207 0.0 12.9 0.00 0.08 0.00 43 1014.7
20260510150236 12 146 1.6 9.7 0.00 0.08 0.00 41 1014.7
20260510145731 12 260 1.6 8.0 0.00 0.08 0.00 43 1014.6
20260510145225 12 114 1.6 8.0 0.00 0.08 0.00 40 1014.6
20260510144108 11 198 0.0 9.7 0.00 0.08 0.00 43 1014.6
20260510142955 11 61 0.0 8.0 0.00 0.08 0.00 41 1014.5
20260510141813 11 239 0.0 4.8 0.00 0.08 0.00 46 1014.4
20260510141307 11 198 1.6 6.4 0.00 0.08 0.00 43 1014.4
20260510140806 11 205 0.0 4.8 0.00 0.08 0.00 44 1014.3
20260510140310 11 61 0.0 1.6 0.00 0.08 0.00 46 1014.3
20260510135757 11 122 0.0 9.7 0.00 0.08 0.00 45 1014.2
20260510135250 10 91 0.0 6.4 0.00 0.08 0.00 46 1014.2
20260510134134 10 150 0.0 4.8 0.00 0.08 0.00 48 1014.2
20260510133638 10 167 0.0 0.0 0.00 0.08 0.00 52 1014.1
20260510133131 10 223 0.0 11.3 0.00 0.08 0.00 50 1014.1
20260510132623 9 158 1.6 11.3 0.00 0.08 0.00 48 1014.1
20260510132118 9 161 0.0 8.0 0.00 0.08 0.00 50 1014.1
20260510131606 9 150 0.0 8.0 0.00 0.08 0.00 51 1014.0
20260510131109 9 181 0.0 0.0 0.00 0.08 0.00 53 1014.0
20260510125940 8 220 3.2 11.3 0.00 0.08 0.00 57 1013.8
20260510125443 8 158 1.6 9.7 0.00 0.08 0.00 58 1013.8
20260510124931 7 166 0.0 8.0 0.00 0.08 0.00 62 1013.7
20260510124421 7 210 0.0 6.4 0.00 0.08 0.00 63 1013.7
20260510123914 7 188 0.0 3.2 0.00 0.08 0.00 65 1013.5
20260510123418 6 139 0.0 0.0 0.00 0.08 0.00 67 1013.5
20260510122927 6 176 0.0 3.2 0.00 0.08 0.00 68 1013.5
20260510122432 6 181 0.0 3.2 0.00 0.08 0.00 68 1013.5
20260510121936 6 158 0.0 4.8 0.00 0.08 0.00 69 1013.5
20260510121429 6 175 0.0 3.2 0.00 0.08 0.00 71 1013.5
20260510120914 6 212 0.0 4.8 0.00 0.08 0.00 72 1013.4
20260510115122 5 212 0.0 6.4 0.00 0.10 0.00 77 1013.3
20260510114619 5 171 0.0 6.4 0.00 0.10 0.00 80 1013.1
20260510114128 4 153 0.0 3.2 0.00 0.10 0.00 84 1013.1
20260510113011 3 161 0.0 0.0 0.00 0.10 0.00 92 1012.9
20260510112519 3 155 0.0 0.0 0.00 0.10 0.00 94 1012.8
20260510111352 2 165 0.0 0.0 0.00 0.10 0.00 95 1012.6
20260510110858 2 148 0.0 0.0 0.00 0.10 0.00 95 1012.5
20260510110339 1 136 0.0 0.0 0.00 0.10 0.00 95 1012.4
20260510105833 1 136 0.0 0.0 0.00 0.10 0.00 95 1012.4
20260510105323 1 111 0.0 1.6 0.00 0.10 0.00 95 1012.3
20260510104830 0 138 0.0 0.0 0.00 0.10 0.00 95 1012.2
20260510104313 0 138 0.0 0.0 0.00 0.10 0.00 94 1012.2
20260510103141 0 201 0.0 0.0 0.00 0.10 0.00 94 1012.1
20260510102627 0 201 0.0 0.0 0.00 0.10 0.00 94 1012.1
20260510102127 0 201 0.0 0.0 0.00 0.10 0.00 94 1012.0
20260510101636 0 201 0.0 0.0 0.00 0.10 0.00 94 1012.0
20260510101141 0 201 0.0 0.0 0.00 0.10 0.00 94 1011.9
20260510100622 0 201 0.0 0.0 0.00 0.10 0.00 94 1011.8
20260510100122 0 201 0.0 0.0 0.00 0.10 0.00 93 1011.7
20260510095012 0 201 0.0 0.0 0.00 0.10 0.00 93 1011.5
20260510094508 0 201 0.0 0.0 0.00 0.10 0.00 93 1011.4
20260510093333 0 201 0.0 0.0 0.00 0.10 0.00 93 1011.2
20260510092843 1 201 0.0 0.0 0.00 0.10 0.00 93 1011.2
20260510091710 1 201 0.0 0.0 0.00 0.10 0.00 93 1010.9
20260510085931 1 201 0.0 0.0 0.00 0.10 0.00 92 1010.9
20260510085435 1 201 0.0 0.0 0.00 0.10 0.00 92 1010.7
20260510084933 1 201 0.0 0.0 0.00 0.10 0.00 92 1010.6
20260510084417 1 201 0.0 0.0 0.00 0.10 0.00 91 1010.5
20260510083917 1 201 0.0 0.0 0.00 0.10 0.00 91 1010.4
20260510083418 1 201 0.0 0.0 0.00 0.10 0.00 91 1010.2
20260510082910 1 201 0.0 0.0 0.00 0.10 0.00 90 1010.1
20260510082352 1 201 0.0 0.0 0.00 0.10 0.00 90 1010.0
20260510081857 1 201 0.0 0.0 0.00 0.10 0.00 90 1009.9
20260510081344 1 201 0.0 0.0 0.00 0.10 0.00 90 1009.9
20260510080828 1 201 0.0 0.0 0.00 0.10 0.00 89 1009.8
20260510080331 1 201 0.0 0.0 0.00 0.10 0.00 89 1009.7
20260510075222 1 201 0.0 0.0 0.00 0.10 0.00 87 1009.5
20260510073457 2 201 0.0 0.0 0.00 0.10 0.00 85 1009.3
20260510072943 2 201 0.0 0.0 0.00 0.10 0.00 84 1009.3
20260510072446 2 201 0.0 0.0 0.00 0.10 0.00 83 1009.3
20260510071255 3 201 0.0 0.0 0.00 0.10 0.00 80 1009.1
20260510070803 4 201 0.0 0.0 0.00 0.10 0.00 79 1009.1
20260510070259 4 201 0.0 0.0 0.00 0.10 0.00 78 1009.0
20260510065759 5 201 0.0 0.0 0.00 0.10 0.00 76 1008.9
20260510065254 5 201 0.0 0.0 0.00 0.10 0.00 75 1008.9
20260510064755 6 201 0.0 0.0 0.00 0.10 0.00 73 1008.8
20260510063043 7 201 0.0 0.0 0.00 0.10 0.00 71 1008.5
20260510062533 7 168 0.0 0.0 0.00 0.10 0.00 70 1008.5
20260510062024 7 171 0.0 3.2 0.00 0.10 0.00 70 1008.4
20260510061527 7 166 0.0 0.0 0.00 0.10 0.00 70 1008.3
20260510060359 6 164 0.0 1.6 0.00 0.10 0.00 73 1008.1
20260510055905 6 167 0.0 6.4 0.00 0.10 0.00 73 1008.0
20260510055353 7 162 0.0 0.0 0.00 0.10 0.00 71 1008.0
20260510054834 7 162 0.0 0.0 0.00 0.10 0.00 71 1007.9
20260510054327 7 162 0.0 0.0 0.00 0.10 0.00 71 1007.8
20260510053834 7 163 0.0 0.0 0.00 0.10 0.00 71 1007.6
20260510053316 7 163 0.0 0.0 0.00 0.10 0.00 71 1007.5
20260510052821 7 163 0.0 0.0 0.00 0.10 0.00 72 1007.4
20260510051702 7 155 0.0 0.0 0.00 0.10 0.00 73 1007.4
20260510051155 7 191 0.0 0.0 0.00 0.10 0.00 74 1007.3
20260510050705 7 174 0.0 0.0 0.00 0.10 0.00 74 1007.2
20260510050156 7 176 0.0 0.0 0.00 0.10 0.00 74 1007.1
20260510045657 7 176 0.0 0.0 0.00 0.10 0.00 74 1007.0
20260510043848 7 176 0.0 0.0 0.00 0.10 0.00 76 1006.9
20260510043346 7 176 0.0 0.0 0.00 0.10 0.00 76 1006.8
20260510042236 7 176 0.0 0.0 0.00 0.10 0.00 73 1006.7
20260510041735 8 176 0.0 0.0 0.00 0.10 0.00 72 1006.6
20260510040002 10 176 0.0 0.0 0.00 0.10 0.13 67 1006.4
20260510034830 10 170 0.0 0.0 0.00 0.10 0.13 65 1006.2
20260510034316 10 170 0.0 0.0 0.00 0.10 0.13 64 1006.2
20260510033812 10 181 0.0 0.0 0.00 0.10 0.13 64 1006.1
20260510033319 11 228 0.0 3.2 0.00 0.10 0.13 63 1006.0
20260510032802 11 175 0.0 3.2 0.00 0.10 0.13 63 1006.0
20260510032245 11 169 0.0 4.8 0.00 0.10 0.13 62 1006.0
20260510031748 11 177 0.0 3.2 0.00 0.10 0.13 61 1005.9
20260510030638 11 171 0.0 4.8 0.00 0.10 0.13 60 1005.7
20260510030145 12 190 0.0 0.0 0.00 0.10 0.13 60 1005.6
20260510025627 12 168 0.0 16.1 0.00 0.10 0.13 60 1005.6
20260510025118 12 180 0.0 16.1 0.00 0.10 0.13 59 1005.6
20260510024609 12 195 1.6 16.1 0.00 0.10 0.13 59 1005.4
20260510024103 12 190 1.6 12.9 0.00 0.10 0.13 58 1005.3
20260510023547 13 207 1.6 12.9 0.00 0.10 0.13 57 1005.3
20260510023051 13 135 0.0 11.3 0.00 0.10 0.13 56 1005.1
20260510022545 13 232 0.0 8.0 0.00 0.10 0.13 53 1005.0
20260510022054 14 207 1.6 8.0 0.00 0.10 0.13 49 1004.8
20260510021540 14 173 0.0 8.0 0.00 0.10 0.13 49 1004.6
20260510021023 14 150 0.0 8.0 0.00 0.10 0.13 49 1004.5
20260510020517 14 182 1.6 17.7 0.00 0.10 0.13 49 1004.1
20260510020007 14 168 3.2 17.7 0.00 0.10 0.13 49 1004.1
20260510015451 14 149 4.8 17.7 0.00 0.10 0.13 48 1003.9
20260510014949 14 137 4.8 17.7 0.00 0.10 0.13 49 1003.9
20260510014433 13 176 1.6 12.9 0.00 0.10 0.13 53 1003.5
20260510013942 13 194 0.0 6.4 0.00 0.10 0.13 58 1003.2
20260510013430 12 144 0.0 8.0 0.00 0.10 0.13 61 1003.1
20260510012935 11 170 0.0 3.2 0.00 0.10 0.13 68 1002.8
20260510012423 11 148 0.0 0.0 0.00 0.10 0.13 69 1002.7
20260510011911 11 148 0.0 0.0 0.00 0.10 0.13 68 1002.6
20260510011359 11 148 0.0 0.0 0.00 0.10 0.13 67 1002.4
20260510010254 11 148 0.0 0.0 0.00 0.10 0.13 68 1002.3
20260510005138 12 148 0.0 0.0 0.00 0.10 0.13 65 1002.1
20260510004620 12 148 0.0 0.0 0.00 0.10 0.13 63 1002.0
20260510002832 15 148 0.0 0.0 0.00 0.10 0.13 54 1001.7
20260510002334 15 148 0.0 0.0 0.00 0.10 0.13 52 1001.6
20260510001822 16 148 0.0 0.0 0.00 0.10 0.13 50 1001.6
20260510000639 16 160 0.0 0.0 0.00 0.10 0.13 46 1001.3
20260509235519 17 134 1.6 12.9 0.00 0.10 0.13 44 1001.3
20260509235024 17 206 1.6 12.9 0.00 0.10 0.13 44 1001.3
20260509234531 17 167 1.6 17.7 0.00 0.10 0.13 43 1001.2
20260509233347 18 93 4.8 17.7 0.00 0.10 0.13 41 1001.0
20260509232838 18 115 3.2 17.7 0.00 0.10 0.13 40 1000.9
20260509232320 19 138 1.6 16.1 0.00 0.10 0.13 40 1000.9
20260509231821 19 165 4.8 16.1 0.00 0.10 0.13 38 1000.7
20260509231312 19 184 4.8 30.6 0.00 0.10 0.13 40 1000.9
20260509230803 19 60 4.8 30.6 0.00 0.10 0.13 38 1000.7
20260509225645 19 221 4.8 20.9 0.00 0.10 0.13 38 1000.5
20260509224528 18 274 4.8 17.7 0.00 0.10 0.13 40 1000.1
20260509222757 20 122 3.2 17.7 0.00 0.10 0.13 38 999.9
20260509222243 20 61 3.2 25.7 0.00 0.10 0.13 38 999.7
20260509221729 20 290 4.8 25.7 0.00 0.10 0.13 39 999.6
20260509221238 20 60 4.8 25.7 0.00 0.10 0.13 38 999.5
20260509220718 20 141 4.8 25.7 0.00 0.10 0.13 39 999.5
20260509220208 20 101 3.2 20.9 0.00 0.10 0.13 40 999.5
20260509215709 20 262 4.8 20.9 0.00 0.10 0.13 39 999.5
20260509215201 20 61 6.4 20.9 0.00 0.10 0.13 38 999.2
20260509214651 20 145 4.8 20.9 0.00 0.10 0.13 38 999.3
20260509212855 20 103 4.8 20.9 0.00 0.10 0.13 37 999.0
20260509211730 20 77 3.2 24.1 0.00 0.10 0.13 41 999.1
20260509210629 20 329 6.4 25.7 0.00 0.10 0.13 39 999.0
20260509210135 20 64 4.8 25.7 0.00 0.10 0.13 42 999.0
20260509205620 20 60 6.4 25.7 0.00 0.10 0.13 41 999.1
20260509205114 19 60 6.4 25.7 0.00 0.10 0.13 41 999.1
20260509203957 20 330 4.8 19.3 0.00 0.10 0.13 42 999.3
20260509202856 20 60 4.8 17.7 0.00 0.10 0.13 44 999.4
20260509201733 19 169 3.2 14.5 0.00 0.10 0.13 46 999.4
20260509200606 18 145 1.6 12.9 0.00 0.10 0.13 60 999.7
20260509200116 18 159 1.6 12.9 0.00 0.10 0.13 63 999.7
20260509195002 17 157 0.0 6.4 0.00 0.10 0.13 71 999.6
20260509194502 17 129 0.0 6.4 0.00 0.10 0.13 69 999.7
20260509194003 16 245 0.0 4.8 0.00 0.10 0.13 72 999.8
20260509193505 16 184 0.0 9.7 0.00 0.10 0.13 76 999.9
20260509192953 15 93 1.6 9.7 0.00 0.10 0.13 78 999.9
20260509192457 14 329 1.6 9.7 0.00 0.10 0.13 79 1000.0
20260509191952 14 61 1.6 9.7 0.00 0.10 0.13 83 1000.1
20260509191438 13 61 1.6 8.0 0.00 0.10 0.13 83 1000.4
20260509185702 13 328 3.2 16.1 0.51 0.10 0.13 78 1000.3
20260509185149 15 104 6.4 27.4 1.14 0.05 0.10 72 1000.4
20260509184635 16 137 6.4 27.4 0.00 0.03 0.03 62 1000.4
20260509184144 18 189 4.8 27.4 0.00 0.03 0.03 52 1000.1
20260509183625 18 125 4.8 27.4 0.00 0.03 0.03 53 999.6
20260509183119 18 61 3.2 19.3 0.00 0.03 0.03 53 999.0
20260509182605 18 61 4.8 19.3 0.00 0.03 0.03 52 998.9
20260509182049 19 329 4.8 19.3 0.00 0.03 0.03 52 998.8
20260509181536 19 61 4.8 20.9 0.00 0.03 0.03 52 998.6
20260509181032 19 61 4.8 20.9 0.00 0.03 0.03 52 998.6
20260509180537 19 86 6.4 20.9 0.00 0.03 0.03 52 998.6
20260509180036 19 63 6.4 20.9 0.00 0.03 0.03 50 998.7
20260509175525 20 96 4.8 20.9 0.00 0.03 0.03 50 998.6
20260509174403 20 117 4.8 20.9 0.00 0.03 0.03 54 999.0
20260509173905 20 61 6.4 17.7 0.00 0.03 0.03 53 998.9
20260509173359 20 61 6.4 17.7 0.00 0.03 0.03 52 998.9
20260509172841 20 61 6.4 20.9 0.00 0.03 0.03 53 999.0
20260509172341 20 61 4.8 20.9 0.00 0.03 0.03 53 999.1
20260509171832 20 61 4.8 24.1 0.00 0.03 0.03 53 999.0
20260509171341 20 61 4.8 24.1 0.00 0.03 0.03 51 999.2
20260509170826 20 61 6.4 24.1 0.00 0.03 0.03 53 999.1
20260509165659 19 61 6.4 20.9 0.00 0.03 0.03 55 999.1
20260509165205 18 75 4.8 16.1 0.00 0.03 0.03 58 999.2